When you browse on this site, cookies collect data to enhance your experience and personalize the content and advertising you see.
Visit our Privacy Policy to learn more. By continuing to use the site, you agree to this use of cookies and data.
  • In United Kingdom
  • List of Countries
  • For 7 days
  • Water Temperature
  • Weather Map
  • Weather Widgets
  • user-avatar
    Login

    Hourly Weather Polotsk

    Today, 19 October, Saturday

    Time Temperature Precipitation Wind Pressure Humidity
    00:00 +10°C° 0 mm 2 mps 747 mmHg 87%
    01:00 +10°C° 0 mm 2 mps 747 mmHg 88%
    02:00 +9°C° 0 mm 2 mps 747 mmHg 89%
    03:00 +9°C° 0 mm 2 mps 747 mmHg 90%
    04:00 +9°C° 0 mm 2 mps 747 mmHg 91%
    05:00 +9°C° 0 mm 3 mps 746 mmHg 92%
    06:00 +9°C° 0 mm 2 mps 747 mmHg 91%
    07:00 +10°C° 0 mm 2 mps 747 mmHg 90%
    08:00 +10°C° 0 mm 2 mps 747 mmHg 89%
    09:00 +12°C° 0 mm 2 mps 747 mmHg 85%
    10:00 +14°C° 0 mm 2 mps 747 mmHg 81%
    11:00 +15°C° 0 mm 2 mps 747 mmHg 77%
    12:00 +16°C° 0 mm 2 mps 747 mmHg 76%
    13:00 +17°C° 0 mm 2 mps 747 mmHg 74%
    14:00 +17°C° 0 mm 2 mps 747 mmHg 73%
    15:00 +16°C° 0 mm 2 mps 747 mmHg 78%
    16:00 +15°C° 0 mm 2 mps 747 mmHg 83%
    17:00 +14°C° 0 mm 2 mps 747 mmHg 89%
    18:00 +14°C° 0 mm 2 mps 747 mmHg 90%
    19:00 +13°C° 0 mm 2 mps 748 mmHg 91%
    20:00 +13°C° 0 mm 2 mps 748 mmHg 92%
    21:00 +12°C° 0 mm 2 mps 748 mmHg 92%
    22:00 +12°C° 0 mm 2 mps 748 mmHg 92%
    23:00 +12°C° 0 mm 2 mps 748 mmHg 92%

    Tomorrow, 20 October, Sunday

    Time Temperature Precipitation Wind Pressure Humidity
    00:00 +12°C° 0 mm 1 mps 748 mmHg 92%
    01:00 +12°C° 0 mm 1 mps 748 mmHg 93%
    02:00 +12°C° 0 mm 1 mps 749 mmHg 93%
    03:00 +11°C° 0 mm 1 mps 749 mmHg 93%
    04:00 +11°C° 0 mm 1 mps 749 mmHg 93%
    05:00 +11°C° 0 mm 1 mps 749 mmHg 93%
    06:00 +11°C° 0 mm 1 mps 749 mmHg 93%
    07:00 +12°C° 0 mm 1 mps 749 mmHg 93%
    08:00 +12°C° 0 mm 1 mps 749 mmHg 93%
    09:00 +13°C° 0 mm 1 mps 749 mmHg 87%
    10:00 +15°C° 0 mm 2 mps 749 mmHg 82%
    11:00 +16°C° 0 mm 2 mps 749 mmHg 77%
    12:00 +17°C° 0 mm 2 mps 749 mmHg 75%
    13:00 +17°C° 0 mm 2 mps 749 mmHg 74%
    14:00 +18°C° 0 mm 3 mps 749 mmHg 73%
    15:00 +17°C° 0 mm 3 mps 749 mmHg 78%
    16:00 +16°C° 0 mm 2 mps 748 mmHg 83%
    17:00 +14°C° 0 mm 2 mps 748 mmHg 89%
    18:00 +14°C° 0 mm 2 mps 748 mmHg 89%
    19:00 +13°C° 0 mm 3 mps 748 mmHg 90%
    20:00 +13°C° 0 mm 3 mps 748 mmHg 91%
    21:00 +12°C° 0 mm 3 mps 748 mmHg 92%
    22:00 +12°C° 0 mm 3 mps 748 mmHg 92%
    23:00 +12°C° 0 mm 3 mps 748 mmHg 93%

    Day after tomorrow, 21 October, Monday

    Time Temperature Precipitation Wind Pressure Humidity
    00:00 +11°C° 0 mm 3 mps 748 mmHg 93%
    01:00 +12°C° 0 mm 2 mps 748 mmHg 93%
    02:00 +12°C° 0 mm 2 mps 748 mmHg 93%
    03:00 +12°C° 0 mm 2 mps 748 mmHg 94%
    04:00 +12°C° 0 mm 2 mps 748 mmHg 94%
    05:00 +12°C° 0 mm 2 mps 748 mmHg 94%
    06:00 +12°C° 0 mm 2 mps 749 mmHg 93%
    07:00 +12°C° 0 mm 2 mps 749 mmHg 93%
    08:00 +12°C° 0 mm 2 mps 749 mmHg 92%
    09:00 +13°C° 0 mm 2 mps 749 mmHg 88%
    10:00 +15°C° 0 mm 2 mps 749 mmHg 83%
    11:00 +16°C° 0 mm 2 mps 750 mmHg 78%
    12:00 +17°C° 0 mm 2 mps 750 mmHg 76%
    13:00 +17°C° 0 mm 2 mps 750 mmHg 73%
    14:00 +18°C° 0 mm 2 mps 750 mmHg 70%
    15:00 +18°C° 0 mm 1 mps 750 mmHg 76%
    16:00 +15°C° 0 mm 1 mps 750 mmHg 82%
    17:00 +13°C° 0 mm 0 mps 750 mmHg 88%
    18:00 +14°C° 0 mm 1 mps 750 mmHg 89%
    19:00 +13°C° 0 mm 1 mps 750 mmHg 91%
    20:00 +13°C° 0 mm 1 mps 751 mmHg 92%
    21:00 +13°C° 0 mm 1 mps 750 mmHg 93%
    22:00 +12°C° 0 mm 2 mps 750 mmHg 94%
    23:00 +12°C° 0 mm 2 mps 750 mmHg 94%

    22 October, Tuesday

    Time Temperature Precipitation Wind Pressure Humidity
    00:00 +12°C° 0 mm 2 mps 750 mmHg 95%
    01:00 +12°C° 0 mm 2 mps 750 mmHg 95%
    02:00 +12°C° 0 mm 2 mps 749 mmHg 95%
    03:00 +12°C° 0 mm 2 mps 749 mmHg 95%
    04:00 +12°C° 0 mm 2 mps 749 mmHg 95%
    05:00 +12°C° 0 mm 2 mps 749 mmHg 95%
    06:00 +12°C° 0 mm 2 mps 749 mmHg 94%
    07:00 +12°C° 0 mm 2 mps 748 mmHg 93%
    08:00 +12°C° 0 mm 2 mps 748 mmHg 92%
    09:00 +14°C° 0 mm 2 mps 748 mmHg 88%
    10:00 +15°C° 0 mm 2 mps 748 mmHg 84%
    11:00 +16°C° 0 mm 2 mps 748 mmHg 80%
    12:00 +16°C° 0 mm 3 mps 748 mmHg 79%
    13:00 +17°C° 0 mm 3 mps 748 mmHg 77%
    14:00 +17°C° 0 mm 4 mps 748 mmHg 75%
    15:00 +17°C° 0 mm 4 mps 748 mmHg 79%
    16:00 +15°C° 0 mm 4 mps 748 mmHg 83%
    17:00 +14°C° 0 mm 4 mps 748 mmHg 87%
    18:00 +13°C° 0 mm 4 mps 748 mmHg 88%
    19:00 +13°C° 0 mm 4 mps 749 mmHg 89%
    20:00 +12°C° 0 mm 4 mps 749 mmHg 90%
    21:00 +12°C° 0 mm 4 mps 749 mmHg 89%
    22:00 +11°C° 0 mm 4 mps 750 mmHg 88%
    23:00 +11°C° 0 mm 4 mps 750 mmHg 87%

    23 October, Wednesday

    Time Temperature Precipitation Wind Pressure Humidity
    00:00 +11°C° 0 mm 4 mps 750 mmHg 84%
    01:00 +11°C° 0 mm 4 mps 750 mmHg 81%
    02:00 +11°C° 0 mm 4 mps 750 mmHg 77%
    03:00 +11°C° 0 mm 3 mps 751 mmHg 79%
    04:00 +10°C° 0 mm 3 mps 751 mmHg 80%
    05:00 +10°C° 0 mm 3 mps 751 mmHg 81%
    06:00 +10°C° 0 mm 3 mps 751 mmHg 84%
    07:00 +9°C° 0 mm 3 mps 751 mmHg 87%
    08:00 +8°C° 0 mm 4 mps 751 mmHg 90%
    09:00 +10°C° 0 mm 4 mps 751 mmHg 84%
    10:00 +11°C° 0 mm 4 mps 751 mmHg 77%
    11:00 +13°C° 0 mm 5 mps 751 mmHg 70%
    12:00 +13°C° 0 mm 5 mps 751 mmHg 71%
    13:00 +13°C° 0 mm 5 mps 751 mmHg 71%
    14:00 +13°C° 0 mm 4 mps 751 mmHg 72%
    15:00 +13°C° 0 mm 4 mps 750 mmHg 75%
    16:00 +12°C° 0 mm 3 mps 750 mmHg 78%
    17:00 +12°C° 0 mm 2 mps 750 mmHg 81%
    18:00 +10°C° 0 mm 2 mps 750 mmHg 84%
    19:00 +10°C° 0 mm 2 mps 750 mmHg 88%
    20:00 +9°C° 0 mm 2 mps 750 mmHg 91%
    21:00 +9°C° 0 mm 2 mps 750 mmHg 92%
    22:00 +9°C° 0 mm 2 mps 750 mmHg 92%
    23:00 +9°C° 0 mm 2 mps 750 mmHg 93%

    24 October, Thursday

    Time Temperature Precipitation Wind Pressure Humidity
    00:00 +9°C° 0 mm 2 mps 750 mmHg 92%
    01:00 +9°C° 0 mm 2 mps 750 mmHg 91%
    02:00 +10°C° 0 mm 1 mps 750 mmHg 90%
    03:00 +10°C° 0.2 mm 1 mps 750 mmHg 90%
    04:00 +10°C° 0.2 mm 1 mps 750 mmHg 91%
    05:00 +10°C° 0.2 mm 1 mps 750 mmHg 92%
    06:00 +10°C° 0 mm 1 mps 750 mmHg 92%
    07:00 +9°C° 0 mm 1 mps 750 mmHg 93%
    08:00 +9°C° 0 mm 1 mps 750 mmHg 94%
    09:00 +10°C° 0 mm 1 mps 750 mmHg 87%
    10:00 +12°C° 0 mm 1 mps 750 mmHg 81%
    11:00 +13°C° 0 mm 1 mps 750 mmHg 75%
    12:00 +14°C° 0 mm 1 mps 750 mmHg 73%
    13:00 +14°C° 0 mm 1 mps 750 mmHg 72%
    14:00 +15°C° 0 mm 2 mps 750 mmHg 70%
    15:00 +14°C° 0 mm 1 mps 750 mmHg 76%
    16:00 +13°C° 0 mm 1 mps 749 mmHg 82%
    17:00 +10°C° 0 mm 0 mps 749 mmHg 87%
    18:00 +11°C° 0 mm 1 mps 749 mmHg 89%
    19:00 +11°C° 0 mm 1 mps 749 mmHg 90%
    20:00 +10°C° 0 mm 2 mps 749 mmHg 92%
    21:00 +10°C° 0 mm 2 mps 749 mmHg 92%
    22:00 +10°C° 0 mm 2 mps 749 mmHg 93%
    23:00 +10°C° 0 mm 2 mps 749 mmHg 94%
    Show more